Find Starlink 5988

NORAD ID: 56320 Int'l Des: 2023-058 Owner: SPXS Country: US Constellation: starlink operational
LEOCIRCULARRETROGRADESSO

Live Position

Loading 3D Globe...

About Starlink 5988

Description loading...

Upcoming Passes

Passes for default location (London). Set your location on the main map for personalized predictions.

Altitude History

Loading altitude history...

Two-Line Element Set

1 56320U 23058D 26126.46471208 .00002039 00000-0 14545-3 0 9999
2 56320 97.5302 126.9126 0002159 94.4431 265.7043 15.05638726166477
Epoch: May 6, 2026 • Age: 12 hours

Current Status

Altitude 551.5 km
Velocity 7.59 km/s
Sub-Earth Point 16.73°N, 99.25°E
Launch Date Apr 27, 2023
Age 3 years
Type internet

Technical Details

Classification Payload
Mass 300.00 kg
Dry Mass 260.00 kg
Total Mass 300.00 kg
Length 0.20 m
Diameter 2.80 m
Span 9.00 m
Shape Box + pan
Manufacturer SPXS
Bus Type Starlink
Phase Status In Orbit
Owner/State SPXS/US

Most Searched